STARLINK-4728

operational
NORAD ID: 53793 Int'l Des: 2022-111 Owner: SPXS Country: US Constellation: starlink
LEOCIRCULAR

STARLINK-4728について

説明を読み込み中...

リアルタイム位置

3D地球を読み込み中...

次回通過

高度履歴

Altitude vs Time

uPlot chart will show altitude changes over time

軌道要素

1 53793U 22111W 25251.62669779 -.00000488 00000-0 -12570-4 0 9992
2 53793 53.2194 11.2284 0001295 96.5941 263.5198 15.08829512166202
Epoch: Sep 8, 2025 • Age: 19 hours

現在のステータス

高度 540.7 km
速度 7.60 km/s
衛星直下点 27.49°N, 112.41°W
打ち上げ日 Sep 11, 2022
運用期間 2.9 years
タイプ internet

技術仕様

分類 Payload
質量 305.00 kg
乾燥質量 290.00 kg
総質量 305.00 kg
長さ 0.20 m
直径 2.80 m
スパン 9.00 m
形状 Box + pan
製造者 SPXS
バスタイプ Starlink
フェーズステータス In Orbit
所有者/国 SPXS/US

大規模コンステレーション

Loading constellations...